Denver Centennial, CO

10:55 PM MDT on July 20, 2017 (GMT -0600)
Centennial

Weather History for KAPA - March, 2013

Change the Weather History Date:

Saturday, March 16, 2013

  Actual Average Record
Temperature  
Mean Temperature 45 °F -  
Max Temperature 51 °F 52 °F 78 °F (2015)
Min Temperature 38 °F 26 °F 19 °F (2001)
Degree Days  
Heating Degree Days 20    
Month to date heating degree days 416  
Moisture  
Dew Point 31 °F    
Average Humidity 56    
Maximum Humidity 73    
Minimum Humidity 39    
Precipitation  
Precipitation T in - - ()
Month to date precipitation 0.56  
Year to date precipitation 1.25  
Sea Level Pressure  
Sea Level Pressure 29.86 in    
Wind  
Wind Speed 7 mph (SSW)    
Max Wind Speed 16 mph    
Max Gust Speed 20 mph    
Visibility 10 miles    
Events Rain    
Averages and records for this station are not official NWS values.
T = Trace of Precipitation, MM = Missing Value Source: NWS Daily Summary

Daily Weather History Graph

Daily Weather History Graph

Search for Another Location

Airport or City:

Trip Planner

Search our weather history database for the weather conditions in past years. The results will help you decide how hot, cold, wet, or windy it might be!

Date:

Astronomy

Mar. 16, 2013 Rise Set
Actual Time 7:08 AM MDT 7:07 PM MDT
Civil Twilight 6:41 AM MDT 7:34 PM MDT
Nautical Twilight 6:10 AM MDT 8:05 PM MDT
Astronomical Twilight 5:39 AM MDT 8:37 PM MDT
Moon 9:41 AM MDT (3/16) No Moon Set
Length of Visible Light 12h 52m
Length of Day
11h 58m
Waxing Crescent, 23% of the Moon is Illuminated
Mar 16
Waxing Crescent
Mar 19
First Quarter
Mar 27
Full
Apr 2
Last Quarter
Apr 10
New

Hourly Weather History & Observations

Time (MDT) Temp. Windchill Dew Point Humidity Pressure Visibility Wind Dir Wind Speed Gust Speed Precip Events Conditions
12:53 AM 45.0 °F 39.3 °F 28.9 °F 53% 29.82 in 10.0 mi SE 11.5 mph - N/A   Mostly Cloudy
1:53 AM 46.9 °F - 27.0 °F 46% 29.83 in 10.0 mi SE 4.6 mph - N/A   Mostly Cloudy
2:53 AM 50.0 °F - 27.0 °F 41% 29.84 in 10.0 mi NE 6.9 mph - N/A   Mostly Cloudy
3:53 AM 48.0 °F - 28.0 °F 46% 29.84 in 10.0 mi East 4.6 mph - N/A   Mostly Cloudy
4:53 AM 46.0 °F 41.9 °F 28.9 °F 51% 29.85 in 10.0 mi West 8.1 mph - N/A   Overcast
5:53 AM 43.0 °F 40.3 °F 28.9 °F 58% 29.87 in 10.0 mi SSW 4.6 mph - N/A   Overcast
6:53 AM 42.1 °F 36.1 °F 28.0 °F 58% 29.89 in 10.0 mi SSE 10.4 mph - N/A   Mostly Cloudy
7:53 AM 42.1 °F 40.2 °F 30.0 °F 62% 29.92 in 10.0 mi SSW 3.5 mph - N/A   Mostly Cloudy
8:53 AM 41.0 °F 36.4 °F 32.0 °F 70% 29.95 in 10.0 mi WNW 6.9 mph - N/A   Mostly Cloudy
9:53 AM 41.0 °F 39.0 °F 32.0 °F 70% 29.95 in 10.0 mi WNW 3.5 mph - N/A   Mostly Cloudy
10:53 AM 43.0 °F 40.3 °F 32.0 °F 65% 29.94 in 10.0 mi NW 4.6 mph - N/A   Overcast
11:53 AM 44.1 °F 41.5 °F 32.0 °F 63% 29.92 in 10.0 mi West 4.6 mph - N/A   Overcast
12:53 PM 46.0 °F 44.8 °F 32.0 °F 58% 29.88 in 10.0 mi Variable 3.5 mph - N/A   Mostly Cloudy
1:53 PM 48.0 °F - 32.0 °F 54% 29.82 in 10.0 mi Variable 3.5 mph - N/A   Mostly Cloudy
2:53 PM 48.0 °F - 30.9 °F 52% 29.78 in 10.0 mi North 6.9 mph - N/A   Overcast
3:53 PM 48.0 °F - 32.0 °F 54% 29.80 in 10.0 mi NW 10.4 mph - N/A   Overcast
4:53 PM 46.9 °F - 37.0 °F 68% 29.80 in 10.0 mi WSW 5.8 mph - 0.00 in Rain Light Rain
5:53 PM 48.0 °F - 33.1 °F 56% 29.80 in 10.0 mi South 10.4 mph - 0.00 in   Mostly Cloudy
6:53 PM 46.9 °F - 35.1 °F 63% 29.82 in 10.0 mi SSE 12.7 mph - N/A   Mostly Cloudy
7:53 PM 44.1 °F 38.1 °F 35.1 °F 71% 29.84 in 10.0 mi South 11.5 mph - N/A   Mostly Cloudy
8:53 PM 43.0 °F 38.8 °F 34.0 °F 71% 29.86 in 10.0 mi South 6.9 mph - N/A   Scattered Clouds
9:53 PM 42.1 °F 37.7 °F 33.1 °F 70% 29.85 in 10.0 mi SSE 6.9 mph - N/A   Mostly Cloudy
10:53 PM 41.0 °F 35.2 °F 33.1 °F 73% 29.84 in 10.0 mi South 9.2 mph - N/A   Mostly Cloudy
11:53 PM 41.0 °F 34.3 °F 32.0 °F 70% 29.82 in 10.0 mi SSW 11.5 mph - N/A   Scattered Clouds